Location: Kansas State University
(39.1938°N, 96.5858°W)
Time: 08:00:17
(UTC-05:00)

Daily predictions for brighter satellites

Satellite Brightness Start Highest point End
(mag) Time Altitude Azimuth Time Altitude Azimuth Time Altitude Azimuth
SJ-6B 3.2 20:35:37 10° S 20:39:39 75° WSW 20:43:47 10° NNW
USA 267 3.6 20:35:38 10° SE 20:42:10 69° SW 20:48:43 10° NW
Cosmos 2056 Rocket 4.4 20:39:21 10° SSW 20:44:22 55° WNW 20:49:30 10° N
Meteor 1-18 Rocket 4.4 20:39:28 10° N 20:45:26 87° E 20:51:22 10° S
Cosmos 2322 Rocket 2.7 20:45:54 10° S 20:51:04 37° ESE 20:56:15 10° NE
Resurs 1-3 3.7 20:46:48 10° SSE 20:51:05 58° ENE 20:55:24 10° N
Cosmos 2263 Rocket 3.5 20:46:46 10° N 20:51:18 24° NE 20:55:48 10° ESE
Cosmos 44 Rocket 3.2 20:52:27 10° NNW 20:57:13 75° ENE 21:02:01 10° SE
Cosmos 1441 Rocket 3.8 20:53:34 10° NNW 20:57:14 57° W 21:00:54 10° S
Cosmos 1939 Rocket 3.7 20:56:31 10° SE 21:00:04 32° ENE 21:03:36 10° N
SL-16 R/B 2.5 20:56:22 10° S 21:01:43 46° ESE 21:07:06 10° NE
Okean 1 3.3 20:58:00 10° N 21:01:59 89° W 21:05:58 10° S
ATLAS 2AS CENTAUR R/B 3.5 20:58:38 10° S 21:05:26 37° ESE 21:12:36 10° NE
Cosmos 1633 2.9 21:01:58 10° SSW 21:05:33 69° W 21:09:11 10° N
Cosmos 1536 3.8 21:02:24 10° SSE 21:05:52 27° E 21:09:20 10° NNE
Meteor 1-19 Rocket 4.5 21:00:27 10° N 21:06:13 54° ENE 21:11:52 10° SSE
Cosmos 1452 Rocket 3.6 21:02:51 10° SSW 21:08:08 85° WNW 21:13:27 10° NNE
Lacrosse 5 rocket 1.0 21:04:35 10° NW 21:08:17 89° NE 21:11:32 14° SE
YAOGAN 6 3.6 21:08:46 15° ESE 21:10:59 27° ENE 21:14:01 10° NNE
Cosmos 1420 Rocket 3.9 21:06:14 10° S 21:11:21 71° ESE 21:16:32 10° NNE
MINOTAUR R/B 4.2 21:09:42 10° NNW 21:12:28 74° ENE 21:14:34 16° SSE
Meteor 2-11 Rocket 4.4 21:07:11 10° N 21:13:17 86° E 21:19:22 10° S
Cosmos 839 Rocket 4.2 21:09:21 10° SSW 21:15:40 79° WNW 21:21:56 10° NNE
NOSS 2-3 (E) 4.0 21:11:47 10° SSW 21:16:12 50° ESE 21:21:15 10° NE
Okean 1 Rocket 4.0 21:15:27 14° SE 21:18:24 28° E 21:22:07 10° NNE
S3M 4.0 21:13:52 10° N 21:20:09 73° E 21:26:28 10° SSE
Helios 1B rocket 3.2 21:16:41 10° NE 21:20:21 31° E 21:23:21 14° SSE
Resurs 01 Rocket 2.3 21:17:51 10° S 21:22:12 57° W 21:26:37 10° NNW
Cosmos 1553 Rocket 3.9 21:16:25 10° N 21:22:35 82° E 21:28:40 10° S
Cosmos 1300 Rocket 3.7 21:19:01 10° SSE 21:23:08 47° E 21:27:17 10° NNE
Tiangong 1 1.7 21:22:13 10° WNW 21:24:52 40° N 21:26:22 20° ENE
Cosmos 2360 Rocket 3.0 21:20:30 10° SSE 21:25:10 27° ESE 21:29:51 10° NE
Cosmos 1980 Rocket 3.8 21:21:03 10° SW 21:26:13 38° WNW 21:31:25 10° N
Cosmos 2266 Rocket 4.1 21:21:30 10° SSE 21:27:19 52° E 21:33:08 10° NNE
CZ-4B DEB 4.4 21:27:10 17° SSE 21:29:48 72° ENE 21:33:19 10° N
BREEZE-M DEB (TANK) 2.8 21:26:35 10° WSW 21:30:14 41° NW 21:32:14 10° NE
Meteor 1-5 Rocket 4.4 21:25:44 10° SSE 21:30:47 44° E 21:35:47 10° NNE
Cosmos 1025 Rocket 4.2 21:28:30 10° NNE 21:31:58 24° ENE 21:32:56 22° E
SeaSat 1 2.7 21:29:29 10° NNE 21:34:26 75° WNW 21:39:20 10° SSW
Cosmos 2151 Rocket 4.0 21:30:42 10° SSW 21:35:03 66° W 21:39:26 10° N
SPOT 5 4.4 21:35:22 17° E 21:36:34 19° ENE 21:39:50 10° NNE
Meteor 1-13 Rocket 4.5 21:33:42 10° NNW 21:39:41 80° W 21:45:36 10° S
Cosmos 44 4.0 21:35:41 10° NW 21:39:55 44° WSW 21:43:43 13° S
Lacrosse 5 1.9 21:35:51 10° SSW 21:40:46 53° SE 21:45:43 10° NE
Meteor 2-4 Rocket 3.6 21:35:43 10° N 21:41:17 76° E 21:45:55 16° SSE
Cosmos 1140 Rocket 4.1 21:40:44 10° NNW 21:45:51 54° WSW 21:50:50 10° S
DELTA 2 R/B (1) 4.1 21:40:36 10° W 21:45:58 47° SSW 21:48:44 26° SSE
CZ-4B DEB 2.9 21:48:19 44° ENE 21:48:19 44° ENE 21:50:54 10° N
NOSS 2-3 (C) 3.9 21:45:10 10° SW 21:49:48 83° NW 21:55:11 10° NNE
Atlas Centaur 2 3.4 21:47:36 10° WSW 21:55:01 40° S 21:58:00 28° SE
Okean 2 4.0 21:52:26 10° N 21:56:15 36° ENE 21:56:26 36° E
Cosmos 1536 Rocket 4.3 21:53:17 10° NNW 21:57:29 50° W 22:01:14 12° SSW
Meteor 1-29 2.7 21:57:04 10° NNE 22:00:30 76° ESE 22:01:00 60° SSE
Helios 1A 3.1 21:58:19 28° S 22:00:32 76° WSW 22:04:48 10° NNW
SAR-Lupe-4 3.6 22:02:01 57° E 22:02:13 58° ENE 22:05:46 10° N
ERS-1 Rocket 2.9 22:06:24 40° SE 22:08:10 70° ENE 22:13:11 10° N
MetOp-A 4.2 22:06:28 39° SE 22:08:22 63° ENE 22:13:39 10° N
GPS 2-05 Rocket1 3.9 22:05:56 10° WSW 22:08:18 32° SW 22:08:18 32° SW
H-2A R/B 2.7 22:10:30 33° E 22:11:02 34° ENE 22:15:31 10° N
Cosmos 1741 Rocket 4.4 22:05:52 10° NNW 22:11:03 62° WSW 22:13:50 27° S
SAR-Lupe-1 4.1 22:19:31 71° NNE 22:19:31 71° NNE 22:22:47 10° N
Cosmos 1975 4.4 22:23:15 24° NE 22:23:15 24° NE 22:25:11 10° NNE
ATLAS 3B R/B 2.9 22:16:49 10° NNW 22:23:25 54° NE 22:25:20 41° ESE
SL-08 RB Rocket 3.9 22:23:36 53° ENE 22:23:39 53° ENE 22:28:05 10° N
Terra 3.4 22:29:05 21° NE 22:29:05 21° NE 22:32:00 10° NNE
ARGOS 3.0 22:27:17 55° SE 22:28:27 77° ENE 22:33:49 10° N
Cosmos 2278 Rocket 4.2 22:31:23 10° NNE 22:34:31 15° NE 22:35:15 15° ENE
Cosmos 1302 Rocket 4.2 22:35:30 54° ENE 22:35:30 54° ENE 22:40:05 10° NNE
Cosmos 2322 Rocket 4.0 22:30:08 10° WSW 22:35:07 31° WNW 22:40:09 10° N
Cosmos 2263 Rocket 2.8 22:30:01 10° NNW 22:35:31 50° WSW 22:37:35 34° SSW
Cosmos 2237 4.1 22:34:51 57° SSE 22:35:53 70° ESE 22:41:34 10° NNE
Cosmos 1486 Rocket 4.4 22:31:50 10° N 22:36:47 45° ENE 22:36:47 45° ENE
Cosmos 1455 Rocket 4.4 22:41:15 30° NE 22:41:15 30° NE 22:43:45 10° NNE
Cosmos 1110 Rocket 4.5 22:38:45 12° SSW 22:43:22 57° WNW 22:48:30 10° N
Cosmos 1844 Rocket 3.3 22:38:12 10° N 22:43:32 40° ENE 22:43:39 40° ENE
Cosmos 1515 4.4 22:39:52 10° NNW 22:42:55 51° NW 22:42:55 51° NW
SL-16 R/B 4.3 22:41:22 10° WSW 22:46:01 26° NW 22:50:41 10° N
Cosmos 1244 Rocket 4.5 22:44:32 39° SSW 22:47:01 79° W 22:53:12 10° N
Nadezhda 1 Rocket 4.4 22:42:12 10° N 22:48:14 45° ENE 22:48:14 45° ENE
Cosmos 2322 4.0 22:50:29 17° SW 22:54:55 63° WNW 23:00:34 10° NNE
Cosmos 2219 Rocket 3.6 22:57:52 25° NE 22:57:52 25° NE 23:00:21 10° NE
ATLAS 2AS CENTAUR R/B 3.7 22:48:41 10° SW 22:56:11 53° NW 23:04:08 10° NNE
DMSP B5D2-2 4.5 22:53:43 10° NNE 22:57:49 51° NE 22:57:49 51° NE
Cosmos 1238 Rocket 4.0 22:52:35 10° N 22:59:22 83° W 23:00:28 64° S
COSMOS 2428 2.7 23:04:15 73° NE 23:04:15 73° NE 23:09:26 10° NNE
SL-08 R/B 4.4 23:07:03 70° SSW 23:07:51 85° W 23:14:13 10° N
Cosmos 2360 Rocket 3.4 23:03:41 10° SW 23:08:56 39° WNW 23:14:12 10° N
SPOT 1/Viking Rocket 3.8 23:12:34 66° WNW 23:12:34 66° WNW 23:17:27 10° NNW
Aureole 3 Rocket 4.4 23:05:43 10° NNW 23:14:11 70° W 23:15:34 56° SSW
SPOT 5 3.7 23:14:37 45° W 23:14:37 45° W 23:18:53 10° NNW
Cosmos 1844 4.2 23:10:06 10° NNW 23:14:57 52° NNE 23:14:57 52° NNE
Cosmos 2333 Rocket 3.7 23:20:18 25° NE 23:20:18 25° NE 23:22:44 10° NNE
Lacrosse 5 3.7 23:19:32 10° W 23:23:57 29° NW 23:28:23 10° NNE
H-2A R/B 4.1 23:27:11 22° NNE 23:27:11 22° NNE 23:28:59 10° N
Cosmos 2333 4.5 23:26:46 63° NNW 23:26:46 63° NNW 23:31:45 10° NNE
Cosmos 2237 Rocket 4.0 23:42:17 22° NE 23:42:17 22° NE 23:44:12 10° NNE
Cosmos 1745 Rocket 4.3 23:40:34 56° W 23:40:39 56° W 23:46:42 10° N
Atlas Centaur 2 4.5 23:38:09 10° WSW 23:40:38 18° WSW 23:40:38 18° WSW
H-2A R/B 3.7 23:51:08 25° W 23:51:08 25° W 23:54:38 10° NW
